Location: Albany
(35.0000°S, 118.0000°E)
Time: 23:23:26
(UTC-04:00)

SJ-6B - Visible Passes

Search period start: 03 August 2015 00:00
Search period end: 13 August 2015 00:00
Orbit: 516 x 588 km, 97.8° (Epoch: 03 August)

Date Brightness Start Highest point End Pass type
(mag) Time Alt. Az. Time Alt. Az. Time Alt. Az.
03 Aug 3.4 06:21:09 10° SSE 06:24:39 33° E 06:28:12 10° NNE visible
03 Aug 5.8 07:57:04 10° SW 07:59:11 14° WSW 08:01:09 10° W visible
03 Aug 5.8 17:04:50 10° E 17:06:39 13° ESE 17:08:40 10° SE visible
04 Aug 3.6 06:17:34 10° SE 06:20:58 30° E 06:24:25 10° NNE visible
04 Aug 5.7 07:53:08 10° SSW 07:55:32 16° WSW 07:57:48 10° WNW visible
04 Aug 5.9 17:01:36 10° E 17:03:00 12° ESE 17:04:37 10° SE visible
05 Aug 3.8 06:13:59 10° SE 06:17:16 27° E 06:20:37 10° NNE visible
05 Aug 5.5 07:49:15 10° SSW 07:51:54 17° WSW 07:54:25 10° WNW visible
05 Aug 6.1 16:58:35 10° E 16:59:22 11° ESE 17:00:22 10° SE visible
05 Aug 3.1 18:30:02 10° N 18:33:48 45° W 18:37:32 10° SSW visible
06 Aug 3.9 06:10:25 10° SE 06:13:34 24° E 06:16:49 10° NNE visible
06 Aug 5.4 07:45:24 10° SSW 07:48:15 19° WSW 07:50:59 10° WNW visible
06 Aug 3.0 18:26:19 10° N 18:30:06 51° W 18:33:53 10° SSW visible
07 Aug 4.0 06:06:52 10° SE 06:09:52 22° E 06:12:58 10° NNE visible
07 Aug 5.3 07:41:34 10° SSW 07:44:35 21° WSW 07:47:31 10° WNW visible
07 Aug 2.8 18:22:35 10° N 18:26:25 58° W 18:30:13 10° SSW visible
08 Aug 4.2 06:03:20 10° SE 06:06:09 20° E 06:09:06 10° NE visible
08 Aug 5.1 07:37:44 10° SSW 07:40:55 24° WSW 07:44:01 10° NW visible
08 Aug 2.7 18:18:53 10° N 18:22:44 65° WNW 18:26:34 10° SSW visible
09 Aug 4.3 05:59:49 10° SE 06:02:27 18° E 06:05:13 10° NE visible
09 Aug 4.9 07:33:56 10° SSW 07:37:15 26° WSW 07:40:31 10° NW visible
09 Aug 2.7 18:15:11 10° N 18:19:03 74° WNW 18:22:54 10° SSW visible
10 Aug 4.4 05:56:20 10° SE 05:58:44 16° E 06:01:17 10° NE visible
10 Aug 4.7 07:30:09 10° SSW 07:33:34 29° WSW 07:36:59 10° NW visible
10 Aug 2.7 18:11:30 10° N 18:15:21 84° WNW 18:19:12 10° SSW visible
11 Aug 4.5 05:52:54 10° ESE 05:55:00 14° E 05:57:17 10° NE visible
11 Aug 4.5 07:26:21 10° S 07:29:54 32° WSW 07:33:26 10° NW visible
11 Aug 2.8 18:07:49 10° NNE 18:11:39 86° ESE 18:15:30 10° S visible
12 Aug 4.3 07:22:35 10° S 07:26:13 36° WSW 07:29:52 10° NW visible
12 Aug 2.9 18:04:09 10° NNE 18:07:58 77° ESE 18:11:48 10° S visible
